TimeCST,TemperatureF,Dew PointF,Humidity,Sea Level PressureIn,VisibilityMPH,Wind Direction,Wind SpeedMPH,Gust SpeedMPH,PrecipitationIn,Events,Conditions,WindDirDegrees,DateUTC
12:53 AM,24.1,10.0,55,30.72,10.0,NE,9.2,-,N/A,,Clear,50,2013-11-24 06:53:00
1:53 AM,23.0,10.0,58,30.71,10.0,NE,13.8,-,N/A,,Clear,50,2013-11-24 07:53:00
2:53 AM,23.0,10.0,58,30.73,10.0,NE,11.5,-,N/A,,Clear,40,2013-11-24 08:53:00
3:53 AM,23.0,10.0,58,30.72,10.0,NNE,11.5,-,N/A,,Clear,30,2013-11-24 09:53:00
4:53 AM,23.0,10.9,60,30.74,10.0,NE,6.9,-,N/A,,Clear,40,2013-11-24 10:53:00
5:53 AM,23.0,10.9,60,30.72,10.0,NE,6.9,-,N/A,,Clear,40,2013-11-24 11:53:00
6:53 AM,21.9,10.9,63,30.71,10.0,NNE,8.1,-,N/A,,Clear,30,2013-11-24 12:53:00
7:53 AM,21.9,10.9,63,30.70,10.0,NE,8.1,-,N/A,,Clear,50,2013-11-24 13:53:00
8:53 AM,23.0,12.0,63,30.70,10.0,East,6.9,-,N/A,,Clear,90,2013-11-24 14:53:00
9:53 AM,24.1,12.9,62,30.69,10.0,East,3.5,-,N/A,,Partly Cloudy,100,2013-11-24 15:53:00
10:53 AM,25.0,10.9,55,30.67,10.0,SSE,3.5,-,N/A,,Overcast,160,2013-11-24 16:53:00
11:53 AM,26.1,10.0,51,30.62,10.0,Calm,Calm,-,N/A,,Overcast,0,2013-11-24 17:53:00
12:53 PM,27.0,10.9,51,30.59,10.0,Calm,Calm,-,N/A,,Overcast,0,2013-11-24 18:53:00
1:53 PM,28.0,10.9,49,30.57,10.0,SW,3.5,-,N/A,,Overcast,220,2013-11-24 19:53:00
2:53 PM,27.0,10.0,49,30.54,10.0,Calm,Calm,-,N/A,,Overcast,0,2013-11-24 20:53:00
3:53 PM,28.9,7.0,40,30.51,10.0,East,5.8,-,N/A,,Overcast,80,2013-11-24 21:53:00
4:53 PM,28.9,7.0,40,30.48,10.0,ESE,6.9,-,N/A,,Overcast,110,2013-11-24 22:53:00
5:53 PM,28.9,5.0,36,30.46,10.0,SE,8.1,-,N/A,,Overcast,140,2013-11-24 23:53:00
6:53 PM,30.0,7.0,38,30.43,10.0,ESE,6.9,-,N/A,,Overcast,120,2013-11-25 00:53:00
7:53 PM,30.0,8.1,40,30.42,10.0,SSE,8.1,-,N/A,,Overcast,160,2013-11-25 01:53:00
8:53 PM,28.9,10.0,45,30.40,10.0,SSE,8.1,-,N/A,,Overcast,160,2013-11-25 02:53:00
9:53 PM,28.9,10.9,47,30.37,10.0,SSE,5.8,-,N/A,,Overcast,160,2013-11-25 03:53:00
10:53 PM,28.9,12.9,51,30.37,10.0,South,5.8,-,N/A,,Overcast,170,2013-11-25 04:53:00
11:53 PM,30.0,15.1,54,30.35,10.0,Variable,4.6,-,N/A,,Overcast,0,2013-11-25 05:53:00